KCIKMI Weather Reports


Display with metric or nautical units.
time (UTC)temp
F
wind
direction
speed
MPH
gust
MPH
rain 1hr
in
rain 24hr
in
rain mn
in
humidity
%
barometer
mb
20260509175035 59 186 0.0 2.0 0.00 0.03 0.03 78 1010.9
20260509174535 59 215 0.0 1.0 0.00 0.03 0.03 78 1011.0
20260509174034 58 200 0.0 2.0 0.00 0.03 0.03 79 1011.1
20260509173533 58 358 0.0 2.0 0.00 0.03 0.03 79 1011.1
20260509173033 58 188 0.0 2.0 0.00 0.03 0.03 80 1011.3
20260509172533 58 209 0.0 1.0 0.00 0.03 0.03 80 1011.3
20260509172033 58 206 0.0 0.0 0.00 0.03 0.03 82 1011.0
20260509171537 57 202 0.0 2.0 0.00 0.03 0.03 81 1011.4
20260509171030 57 223 0.0 3.0 0.00 0.03 0.03 81 1011.6
20260509170531 57 194 0.0 3.0 0.00 0.03 0.03 80 1011.9
20260509170031 57 196 0.0 3.0 0.00 0.03 0.03 79 1011.9
20260509165526 57 211 0.0 3.0 0.00 0.03 0.03 79 1011.8
20260509165028 57 209 0.0 3.0 0.00 0.03 0.03 79 1011.8
20260509164526 57 204 0.0 3.0 0.00 0.03 0.03 78 1011.8
20260509164028 57 237 0.0 3.0 0.00 0.03 0.03 77 1011.8
20260509163530 57 210 0.0 3.0 0.00 0.03 0.03 76 1011.8
20260509163027 58 202 1.0 3.0 0.00 0.03 0.03 75 1011.7
20260509162525 58 216 0.0 3.0 0.00 0.03 0.03 75 1011.8
20260509162025 58 199 0.0 3.0 0.00 0.03 0.03 75 1011.7
20260509161525 58 203 0.0 3.0 0.00 0.03 0.03 75 1011.8
20260509161024 58 190 1.0 4.0 0.00 0.03 0.03 74 1011.8
20260509160523 59 193 0.0 4.0 0.00 0.03 0.03 73 1011.9
20260509160023 59 189 0.0 6.0 0.00 0.03 0.03 74 1011.9
20260509155522 58 210 0.0 6.0 0.00 0.03 0.03 75 1011.9
20260509155022 58 196 1.0 6.0 0.00 0.03 0.03 75 1012.0
20260509154521 58 230 1.0 4.0 0.00 0.03 0.03 74 1012.0
20260509154023 58 229 0.0 3.0 0.00 0.03 0.03 75 1012.2
20260509153522 58 206 0.0 2.0 0.00 0.03 0.03 74 1012.2
20260509153019 58 204 0.0 2.0 0.00 0.03 0.03 74 1012.2
20260509152519 58 209 0.0 2.0 0.00 0.03 0.03 73 1012.2
20260509152019 58 214 0.0 2.0 0.00 0.03 0.03 74 1012.3
20260509151518 58 249 0.0 5.0 0.00 0.03 0.03 74 1012.2
20260509151018 58 216 1.0 5.0 0.00 0.03 0.03 74 1012.2
20260509150518 58 201 2.0 5.0 0.00 0.03 0.03 74 1012.3
20260509150030 59 220 0.0 4.0 0.00 0.03 0.03 75 1012.3
20260509145517 59 256 0.0 4.0 0.00 0.03 0.03 73 1012.4
20260509145017 59 214 0.0 3.0 0.00 0.03 0.03 76 1012.3
20260509144528 59 257 0.0 3.0 0.00 0.03 0.03 76 1012.2
20260509144019 59 257 0.0 3.0 0.00 0.03 0.03 76 1012.3
20260509143515 58 210 0.0 1.0 0.00 0.03 0.03 77 1012.4
20260509143015 58 196 0.0 2.0 0.00 0.03 0.03 77 1012.3
20260509142514 58 346 0.0 2.0 0.00 0.03 0.03 78 1012.3
20260509142014 57 197 0.0 1.0 0.00 0.03 0.03 79 1012.1
20260509141515 57 204 0.0 1.0 0.00 0.03 0.03 77 1012.0
20260509141014 57 268 0.0 1.0 0.00 0.03 0.03 77 1012.1
20260509140509 57 206 0.0 1.0 0.00 0.03 0.03 78 1012.2
20260509140008 57 190 0.0 3.0 0.00 0.03 0.03 80 1012.4
20260509135508 56 203 0.0 4.0 0.00 0.03 0.03 81 1012.6
20260509135007 56 193 1.0 4.0 0.00 0.03 0.03 80 1012.7
20260509134510 56 196 0.0 2.0 0.00 0.03 0.03 80 1012.8
20260509134010 56 194 0.0 5.0 0.00 0.03 0.03 82 1012.7
20260509133506 55 192 0.0 5.0 0.00 0.03 0.03 82 1012.9
20260509133004 55 204 0.0 1.0 0.00 0.03 0.03 84 1013.0
20260509132502 55 211 0.0 1.0 0.00 0.03 0.03 84 1012.8
20260509132003 55 223 0.0 1.0 0.00 0.03 0.03 85 1013.0
20260509131502 54 203 0.0 0.0 0.00 0.03 0.03 86 1013.0
20260509131100 54 204 0.0 0.0 0.00 0.03 0.03 85 1013.2
20260509130602 54 209 0.0 0.0 0.00 0.03 0.03 85 1013.2
20260509130059 53 311 0.0 1.0 0.00 0.03 0.03 86 1013.3
20260509125558 53 312 0.0 1.0 0.01 0.03 0.03 86 1013.3
20260509125056 53 203 0.0 1.0 0.01 0.03 0.03 87 1013.3
20260509124555 53 214 0.0 1.0 0.01 0.03 0.03 88 1013.2
20260509124055 52 342 0.0 1.0 0.01 0.03 0.03 90 1013.2
20260509123554 52 342 0.0 1.0 0.01 0.03 0.03 91 1013.1
20260509123054 52 343 0.0 0.0 0.01 0.03 0.03 91 1013.0
20260509122551 51 343 0.0 0.0 0.01 0.03 0.03 91 1013.0
20260509122050 51 342 0.0 0.0 0.01 0.03 0.03 91 1013.1
20260509121552 51 344 0.0 0.0 0.01 0.03 0.03 91 1013.2
20260509121049 50 344 0.0 0.0 0.01 0.03 0.03 91 1013.3
20260509120547 50 344 0.0 0.0 0.01 0.03 0.03 91 1013.2
20260509120045 50 347 0.0 0.0 0.01 0.03 0.03 91 1013.1
20260509115544 50 353 0.0 3.0 0.01 0.02 0.02 91 1013.0
20260509115043 50 358 0.0 3.0 0.01 0.02 0.02 92 1012.9
20260509114545 49 354 0.0 2.0 0.01 0.02 0.02 91 1012.9
20260509114042 49 348 0.0 1.0 0.01 0.02 0.02 91 1013.0
20260509113541 49 344 0.0 0.0 0.01 0.02 0.02 91 1013.1
20260509113044 48 263 0.0 0.0 0.01 0.02 0.02 91 1013.1
20260509112538 48 244 0.0 0.0 0.02 0.02 0.02 90 1013.2
20260509112037 48 181 0.0 0.0 0.02 0.02 0.02 90 1013.3
20260509111536 48 181 0.0 0.0 0.02 0.02 0.02 90 1013.4
20260509111035 48 181 0.0 0.0 0.02 0.02 0.02 90 1013.5
20260509110536 48 181 0.0 0.0 0.02 0.02 0.02 89 1013.5
20260509110033 47 181 0.0 0.0 0.02 0.02 0.02 89 1013.4
20260509105533 47 181 0.0 0.0 0.01 0.01 0.01 89 1013.4
20260509105033 47 181 0.0 0.0 0.01 0.01 0.01 89 1013.4
20260509104533 47 181 0.0 0.0 0.01 0.01 0.01 89 1013.4
20260509104032 47 181 0.0 0.0 0.01 0.01 0.01 88 1013.4
20260509103533 47 181 0.0 0.0 0.01 0.01 0.01 87 1013.5
20260509103031 47 181 0.0 0.0 0.01 0.01 0.01 87 1013.5
20260509102532 47 181 0.0 0.0 0.00 0.00 0.00 86 1013.2
20260509102032 47 181 0.0 0.0 0.00 0.00 0.00 86 1013.1
20260509101536 47 180 0.0 0.0 0.00 0.00 0.00 86 1013.1
20260509101029 47 181 0.0 0.0 0.00 0.00 0.00 85 1013.2
20260509100529 47 180 0.0 0.0 0.00 0.00 0.00 84 1013.2
20260509100028 47 180 0.0 0.0 0.00 0.00 0.00 83 1013.2
20260509095528 47 180 0.0 0.0 0.00 0.00 0.00 82 1013.3
20260509095027 48 181 0.0 0.0 0.00 0.00 0.00 82 1013.3
20260509094526 48 181 0.0 0.0 0.00 0.00 0.00 82 1013.2
20260509094027 48 181 0.0 0.0 0.00 0.00 0.00 82 1013.1
20260509093527 47 181 0.0 0.0 0.00 0.00 0.00 81 1012.9
20260509093025 47 181 0.0 0.0 0.00 0.00 0.00 81 1012.7
20260509092524 47 180 0.0 0.0 0.00 0.00 0.00 80 1012.6
20260509092028 47 181 0.0 0.0 0.00 0.00 0.00 80 1012.6
20260509091525 47 180 0.0 0.0 0.00 0.00 0.00 80 1012.5
20260509091023 47 180 0.0 0.0 0.00 0.00 0.00 80 1012.5
20260509090528 47 181 0.0 0.0 0.00 0.00 0.00 80 1012.4
20260509090023 47 181 0.0 0.0 0.00 0.00 0.00 80 1012.3
20260509085522 47 181 0.0 0.0 0.00 0.00 0.00 80 1012.2
20260509085021 47 180 0.0 0.0 0.00 0.00 0.00 79 1012.3
20260509084521 47 181 0.0 0.0 0.00 0.00 0.00 79 1012.3
20260509084021 47 181 0.0 0.0 0.00 0.00 0.00 79 1012.2
20260509083520 47 180 0.0 0.0 0.00 0.00 0.00 79 1012.1
20260509083021 46 181 0.0 0.0 0.00 0.00 0.00 79 1012.1
20260509082519 46 181 0.0 0.0 0.00 0.00 0.00 79 1012.2
20260509082020 46 181 0.0 0.0 0.00 0.00 0.00 79 1012.2
20260509081519 46 180 0.0 0.0 0.00 0.00 0.00 79 1012.2
20260509081019 46 180 0.0 0.0 0.00 0.00 0.00 79 1012.2
20260509080518 46 180 0.0 0.0 0.00 0.00 0.00 79 1012.3
20260509080018 46 181 0.0 0.0 0.00 0.00 0.00 79 1012.3
20260509075517 46 181 0.0 0.0 0.00 0.00 0.00 79 1012.3
20260509075016 46 180 0.0 0.0 0.00 0.00 0.00 79 1012.3
20260509074517 46 181 0.0 0.0 0.00 0.00 0.00 79 1012.3
20260509074016 46 181 0.0 0.0 0.00 0.00 0.00 79 1012.4
20260509073516 46 181 0.0 0.0 0.00 0.00 0.00 79 1012.5
20260509073016 46 181 0.0 0.0 0.00 0.00 0.00 79 1012.5
20260509072516 46 181 0.0 0.0 0.00 0.00 0.00 78 1012.5
20260509072017 46 181 0.0 0.0 0.00 0.00 0.00 78 1012.6
20260509071516 45 180 0.0 0.0 0.00 0.00 0.00 78 1012.7
20260509071016 45 181 0.0 0.0 0.00 0.00 0.00 77 1012.8
20260509070519 46 181 0.0 0.0 0.00 0.00 0.00 78 1012.8
20260509070015 46 181 0.0 0.0 0.00 0.00 0.00 77 1012.6
20260509065514 46 181 0.0 0.0 0.00 0.00 0.00 77 1012.6
20260509065013 46 181 0.0 0.0 0.00 0.00 0.00 76 1012.6
20260509064513 47 181 0.0 0.0 0.00 0.00 0.00 76 1012.7
20260509064014 47 181 0.0 0.0 0.00 0.00 0.00 76 1012.8
20260509063513 47 181 0.0 0.0 0.00 0.00 0.00 76 1012.8
20260509063013 47 180 0.0 0.0 0.00 0.00 0.00 75 1012.8
20260509062515 47 180 0.0 0.0 0.00 0.00 0.00 75 1012.8
20260509062016 47 181 0.0 0.0 0.00 0.00 0.00 74 1012.8
20260509061512 47 181 0.0 0.0 0.00 0.00 0.00 75 1012.8
20260509061012 47 180 0.0 0.0 0.00 0.00 0.00 75 1012.9
20260509060513 47 181 0.0 0.0 0.00 0.00 0.00 75 1012.8
20260509060010 47 181 0.0 0.0 0.00 0.00 0.00 75 1012.8
20260509055510 46 181 0.0 0.0 0.00 0.00 0.00 75 1012.7
20260509055012 46 181 0.0 0.0 0.00 0.00 0.00 74 1012.8
20260509054509 46 181 0.0 0.0 0.00 0.00 0.00 74 1012.8
20260509054010 46 180 0.0 0.0 0.00 0.00 0.00 73 1012.7
20260509053510 46 180 0.0 0.0 0.00 0.00 0.00 73 1012.7
20260509053009 46 181 0.0 0.0 0.00 0.00 0.00 73 1012.6
20260509052508 46 180 0.0 0.0 0.00 0.00 0.00 73 1012.6
20260509052008 46 180 0.0 0.0 0.00 0.00 0.00 75 1012.6
20260509051514 46 180 0.0 0.0 0.00 0.00 0.00 75 1012.6
20260509051009 46 181 0.0 0.0 0.00 0.00 0.00 75 1012.6
20260509050508 46 181 0.0 0.0 0.00 0.00 0.00 76 1012.8
20260509050007 46 181 0.0 0.0 0.00 0.00 0.00 77 1012.6
20260509045507 46 180 0.0 0.0 0.00 0.00 0.00 77 1012.7
20260509045007 46 180 0.0 0.0 0.00 0.00 0.00 76 1012.7
20260509044507 46 180 0.0 0.0 0.00 0.00 0.00 76 1012.7
20260509044006 46 181 0.0 0.0 0.00 0.00 0.00 75 1012.6
20260509043508 46 180 0.0 0.0 0.00 0.00 0.00 78 1012.7
20260509043005 46 181 0.0 0.0 0.00 0.00 0.00 78 1012.6
20260509042505 46 180 0.0 0.0 0.00 0.00 0.00 78 1012.6
20260509042005 46 180 0.0 0.0 0.00 0.00 0.00 76 1012.6
20260509041503 46 180 0.0 0.0 0.00 0.00 0.00 76 1012.5
20260509041003 46 180 0.0 0.0 0.00 0.00 0.00 76 1012.4
20260509040501 46 180 0.0 0.0 0.00 0.00 0.00 75 1012.2
20260509040100 46 180 0.0 0.0 0.00 0.00 0.00 73 1012.4
20260509035600 46 181 0.0 0.0 0.00 0.00 0.00 70 1012.4
20260509035058 47 181 0.0 0.0 0.00 0.00 0.00 69 1012.3
20260509034559 47 180 0.0 0.0 0.00 0.00 0.00 67 1012.3
20260509034057 47 180 0.0 0.0 0.00 0.00 0.00 68 1012.2
20260509033558 47 180 0.0 0.0 0.00 0.00 0.00 68 1012.2
20260509033100 47 180 0.0 0.0 0.00 0.00 0.00 68 1012.3
20260509032558 47 180 0.0 0.0 0.00 0.00 0.00 68 1012.3
20260509032057 48 180 0.0 0.0 0.00 0.00 0.00 69 1012.3
20260509031559 48 181 0.0 0.0 0.00 0.00 0.00 72 1012.2
20260509031057 48 180 0.0 0.0 0.00 0.00 0.00 72 1012.3
20260509030556 48 180 0.0 0.0 0.00 0.00 0.00 71 1012.3
20260509030055 47 181 0.0 0.0 0.00 0.00 0.00 69 1012.1
20260509025558 47 180 0.0 0.0 0.00 0.00 0.00 68 1012.1
20260509025054 48 181 0.0 0.0 0.00 0.00 0.00 68 1012.1
20260509024554 48 180 0.0 0.0 0.00 0.00 0.00 67 1012.1
20260509024054 48 180 0.0 0.0 0.00 0.00 0.00 66 1012.1
20260509023553 49 181 0.0 0.0 0.00 0.00 0.00 67 1012.0
20260509023052 49 181 0.0 0.0 0.00 0.00 0.00 68 1012.0
20260509022553 49 181 0.0 0.0 0.00 0.00 0.00 68 1012.0
20260509022051 49 181 0.0 0.0 0.00 0.00 0.00 68 1011.9
20260509021550 50 180 0.0 0.0 0.00 0.00 0.00 66 1011.9
20260509021049 50 180 0.0 0.0 0.00 0.00 0.00 66 1011.7
20260509020548 50 180 0.0 0.0 0.00 0.00 0.00 66 1011.8
20260509020048 50 180 0.0 0.0 0.00 0.00 0.00 64 1011.7
20260509015548 50 180 0.0 0.0 0.00 0.00 0.00 62 1011.6
20260509015048 51 180 0.0 0.0 0.00 0.00 0.00 60 1011.4
20260509014546 51 180 0.0 0.0 0.00 0.00 0.00 60 1011.4
20260509014045 51 180 0.0 0.0 0.00 0.00 0.00 59 1011.3
20260509013545 52 180 0.0 0.0 0.00 0.00 0.00 58 1011.3
20260509013053 52 180 0.0 0.0 0.00 0.00 0.00 56 1011.2
20260509012544 52 180 0.0 0.0 0.00 0.00 0.00 54 1011.2
20260509012044 53 180 0.0 0.0 0.00 0.00 0.00 53 1011.2
20260509011543 53 180 0.0 0.0 0.00 0.00 0.00 52 1011.1
20260509011042 53 180 0.0 0.0 0.00 0.00 0.00 50 1011.0
20260509010542 54 182 0.0 1.0 0.00 0.00 0.00 50 1010.9
20260509010041 54 182 0.0 1.0 0.00 0.00 0.00 50 1010.8
20260509005540 54 216 0.0 2.0 0.00 0.00 0.00 49 1010.7
20260509005038 54 216 0.0 4.0 0.00 0.00 0.00 49 1010.5
20260509004540 55 313 0.0 4.0 0.00 0.00 0.00 49 1010.4
20260509004038 55 1 0.0 1.0 0.00 0.00 0.00 48 1010.4
20260509003537 55 14 0.0 3.0 0.00 0.00 0.00 47 1010.3
20260509003036 55 177 0.0 3.0 0.00 0.00 0.00 49 1010.1
20260509002539 55 7 0.0 1.0 0.00 0.00 0.00 48 1010.0
20260509002035 55 26 0.0 0.0 0.00 0.00 0.00 48 1010.0
20260509001540 56 22 0.0 3.0 0.00 0.00 0.00 48 1009.9
20260509001034 56 342 0.0 4.0 0.00 0.00 0.00 47 1009.8
20260509000535 56 356 0.0 4.0 0.00 0.00 0.00 47 1009.8
20260509000032 56 345 0.0 3.0 0.00 0.00 0.00 47 1009.6
20260508235531 56 1 0.0 3.0 0.00 0.00 0.00 47 1009.4
20260508235031 57 3 0.0 4.0 0.00 0.00 0.00 46 1009.3
20260508234531 57 339 1.0 5.0 0.00 0.00 0.00 46 1009.3
20260508234033 57 356 1.0 5.0 0.00 0.00 0.00 46 1009.1
20260508233531 57 4 1.0 8.0 0.00 0.00 0.00 46 1009.0
20260508233031 58 337 1.0 8.0 0.00 0.00 0.00 45 1008.9
20260508232530 58 8 1.0 7.0 0.00 0.00 0.00 45 1008.8
20260508232030 58 273 1.0 7.0 0.00 0.00 0.00 46 1008.8
20260508231534 58 242 0.0 7.0 0.00 0.00 0.00 46 1008.8
20260508231029 58 256 1.0 7.0 0.00 0.00 0.00 45 1008.7
20260508230529 58 5 1.0 5.0 0.00 0.00 0.00 47 1008.7
20260508230028 59 349 0.0 5.0 0.00 0.00 0.00 46 1008.6
20260508225529 59 349 1.0 12.0 0.00 0.00 0.00 46 1008.6
20260508225028 59 188 1.0 12.0 0.00 0.00 0.00 44 1008.6
20260508224535 59 1 1.0 6.0 0.00 0.00 0.00 45 1008.6
20260508224031 59 211 2.0 5.0 0.00 0.00 0.00 45 1008.5
20260508223529 59 354 0.0 3.0 0.00 0.00 0.00 48 1008.4
20260508223042 59 360 0.0 6.0 0.00 0.00 0.00 48 1008.4
20260508222528 60 198 2.0 10.0 0.00 0.00 0.00 48 1008.4
20260508222027 59 356 1.0 10.0 0.00 0.00 0.00 47 1008.3
20260508221527 59 2 0.0 5.0 0.00 0.00 0.00 48 1008.3
20260508221027 59 329 1.0 6.0 0.00 0.00 0.00 49 1008.4
20260508220527 60 346 2.0 7.0 0.00 0.00 0.00 48 1008.4
20260508220030 60 186 2.0 7.0 0.00 0.00 0.00 48 1008.3
20260508215526 60 3 1.0 7.0 0.00 0.00 0.00 48 1008.3
20260508215026 60 6 1.0 8.0 0.00 0.00 0.00 48 1008.3
20260508214547 60 5 3.0 8.0 0.00 0.00 0.00 47 1008.3
20260508214026 60 5 2.0 7.0 0.00 0.00 0.00 47 1008.2
20260508213525 60 346 0.0 5.0 0.00 0.00 0.00 48 1008.3
20260508213025 60 7 0.0 6.0 0.00 0.00 0.00 47 1008.2
20260508212526 60 10 2.0 6.0 0.00 0.00 0.00 48 1008.2
20260508212025 60 354 1.0 7.0 0.00 0.00 0.00 47 1008.2
20260508211525 60 360 1.0 7.0 0.00 0.00 0.00 47 1008.2
20260508211025 60 350 2.0 6.0 0.00 0.00 0.00 47 1008.2
20260508210525 60 360 2.0 6.0 0.00 0.00 0.00 47 1008.2
20260508210026 60 358 0.0 5.0 0.00 0.00 0.00 47 1008.0
20260508205523 61 8 0.0 5.0 0.00 0.00 0.00 47 1008.0
20260508205024 60 359 1.0 8.0 0.00 0.00 0.00 48 1008.0
20260508204626 60 358 1.0 8.0 0.00 0.00 0.00 46 1008.1
20260508204023 61 7 2.0 7.0 0.00 0.00 0.00 47 1007.9
20260508203523 61 86 2.0 6.0 0.00 0.00 0.00 48 1008.0
20260508203023 61 8 1.0 8.0 0.00 0.00 0.00 48 1008.0
20260508202523 60 118 2.0 8.0 0.00 0.00 0.00 48 1008.0
20260508202022 60 204 1.0 4.0 0.00 0.00 0.00 50 1008.0
20260508201522 60 5 0.0 5.0 0.00 0.00 0.00 50 1007.9
20260508201022 61 186 0.0 6.0 0.00 0.00 0.00 49 1007.9
20260508200522 62 204 1.0 8.0 0.00 0.00 0.00 50 1007.8
20260508200023 61 190 1.0 8.0 0.00 0.00 0.00 49 1007.8
20260508195521 61 356 0.0 8.0 0.00 0.00 0.00 53 1007.9
20260508195021 60 147 2.0 8.0 0.00 0.00 0.00 51 1007.9
20260508194521 59 100 0.0 5.0 0.00 0.00 0.00 55 1007.9
20260508194023 59 232 1.0 5.0 0.00 0.00 0.00 64 1008.1
20260508193520 58 209 0.0 5.0 0.00 0.00 0.00 57 1008.2
20260508193019 58 198 0.0 4.0 0.00 0.00 0.00 57 1008.1
20260508192520 58 95 1.0 4.0 0.00 0.00 0.00 56 1008.1
20260508192020 58 221 0.0 6.0 0.00 0.00 0.00 54 1008.2
20260508191520 58 280 1.0 7.0 0.00 0.00 0.00 55 1008.1
20260508191020 59 229 2.0 7.0 0.00 0.00 0.00 54 1008.1
20260508190518 59 11 0.0 6.0 0.00 0.00 0.00 49 1008.0
20260508190036 60 195 2.0 7.0 0.00 0.00 0.00 46 1008.0
20260508185519 60 357 2.0 8.0 0.00 0.00 0.00 43 1007.5
20260508185019 61 10 2.0 9.0 0.00 0.00 0.00 40 1007.5
20260508184528 62 353 4.0 9.0 0.00 0.00 0.00 38 1007.2
20260508184020 62 19 2.0 10.0 0.00 0.00 0.00 36 1006.9
20260508183517 62 230 1.0 10.0 0.00 0.00 0.00 37 1007.0
20260508183028 63 333 2.0 8.0 0.00 0.00 0.00 38 1007.0
20260508182517 63 11 2.0 7.0 0.00 0.00 0.00 35 1007.0
20260508182016 63 119 1.0 6.0 0.00 0.00 0.00 36 1006.9
20260508181518 64 326 1.0 6.0 0.00 0.00 0.00 36 1006.9
20260508181016 64 168 2.0 8.0 0.00 0.00 0.00 34 1007.0
20260508180516 65 205 2.0 9.0 0.00 0.00 0.00 36 1007.0
20260508180015 65 10 2.0 9.0 0.00 0.00 0.00 36 1007.0
20260508175514 66 14 0.0 6.0 0.00 0.00 0.00 35 1006.9